Regional Weather Roundup
Issued by NWS

Home | Current Version | Previous Version | Text Only | Print | Product List | Glossary On
Versions: 1 2 3 4 5 6 7 8 9 10 11 12 13 14 15 16 17 18 19 20 21 22 23 24 25 26 27 28 29 30 31 32 33 34 35 36 37 38 39 40 41 42 43 44 45 46 47 48 49 50
000
ASUS46 KLOX 302212
RWRCA

SOUTHERN CALIFORNIA WEATHER ROUNDUP
NATIONAL WEATHER SERVICE OXNARD CALIFORNIA
300 PM PDT WED JUL 30 2014

NOTE: "FAIR" INDICATES FEW OR NO CLOUDS BELOW 12,000 FEET WITH NO
SIGNIFICANT WEATHER AND/OR OBSTRUCTIONS TO VISIBILITY.

  -  STATIONS PRECEEDED BY AN ASTERISK (*) ARE NOT NWS OR FAA
     STATIONS AND ARE NOT SUBJECT TO NWS AND FAA QUALITY CONTROL.

CAZ041-042-087-302300-
LA AND ORANGE COUNTY COASTAL AREAS


CITY           SKY/WX    TMP DP  RH WIND       PRES   REMARKS
L.A. DOWNTOWN  MOSUNNY   84  62  47 VRB5      29.92S
L.A. AIRPORT   PTSUNNY   76  61  59 W13       29.94S
LONG BEACH     MOSUNNY   86  62  44 S5        29.91F

CITY           SKY/WX    TMP DP  RH WIND       PRES   REMARKS
AVALON           N/A     75 N/A N/A MISG        N/A
FULLERTON      MOSUNNY   87  59  38 VRB5      29.90F
*GETTY CENTER    N/A     82  55  39 S10         N/A
HAWTHORNE      MOSUNNY   80  61  52 W10       29.93F
*LEO CARRILLO    N/A     75  62  64 W13         N/A
*LOS ALAMITOS  PTSUNNY   83  64  52 S9        29.91F
*REDONDO BEACH   N/A     75  66  73 SW3       29.93F
SANTA ANA      PTSUNNY   84  61  45 SW7       29.92F
STA MONICA APT MOSUNNY   78  60  53 SW8       29.94F
TORRANCE       MOSUNNY   82  66  57 W13       29.93F
*UCLA            N/A     77  57  50 SW6       29.91F

$$

CAZ547-548-048-302300-
LA COUNTY VALLEYS AND INLAND EMPIRE


CITY           SKY/WX    TMP DP  RH WIND       PRES   REMARKS
BURBANK        SUNNY     92  55  28 S9        29.92F HX  90
VAN NUYS       SUNNY     95  55  26 SE9       29.91F HX  93

CITY           SKY/WX    TMP DP  RH WIND       PRES   REMARKS
CORONA AIRPORT PTCLDY    93  63  36 NW13      29.91F HX  94
*CHATSWORTH      N/A     99  63  30 W13       29.84F HX 100
CHINO          PTSUNNY   94  59  31 W12G24    29.92F HX  93
MARCH AFB      SUNNY     98  55  23 NW16      29.95F HX  96
*NORTHRIDGE      N/A     97  54  23 SE5         N/A  HX  94
ONTARIO        MOSUNNY   97  55  24 W12G18    29.92F HX  95
*PASADENA        N/A     93  64  38 E1          N/A  HX  95
POMONA         SUNNY     91  57  31 SW10      29.97F HX  90
RIVERSIDE      PTSUNNY   96  58  27 W14       29.91F HX  95
SAN BERNARDINO PTSUNNY  100  46  16 W10       29.93F HX  96
*SAN RAFAEL HI   N/A     94  60  31 NE8         N/A  HX  94
*SAUGUS          N/A    102  51  17 W14         N/A  HX  99
*WHITEMAN AP   NOT AVBL
*WHITTIER HILL   N/A     90  65  42 SW7         N/A  HX  91
*WOODLAND HILL   N/A     99  55  23 NE6         N/A  HX  97

$$

CAZ054-055-302300-
LA AND SAN BERNARDINO COUNTY MOUNTAINS


CITY           SKY/WX    TMP DP  RH WIND       PRES   REMARKS
*BIG BEAR AIRP MOCLDY    81  43  26 W8        30.33F
*CHILAO          N/A     89  47  23 SW9         N/A
MT WILSON NWS    N/A     82  54  36 SW6         N/A
SANDBERG       MOSUNNY   89  44  20 N18G28    30.19F
*WARM SPRINGS    N/A     96  46  17 SW5         N/A  HX  92

$$

CAZ028-029-059-060-099-302300-
ANTELOPE VALLEY AND SURROUNDING AREAS


CITY           SKY/WX    TMP DP  RH WIND       PRES   REMARKS
LANCASTER      SUNNY    101  48  16 SW15G28   29.97F HX  97
PALMDALE       SUNNY    100  48  17 SW18G28   29.98F HX  96
*POPPY PARK      N/A    101  50  17 W16G28      N/A  HX  98

CITY           SKY/WX    TMP DP  RH WIND       PRES   REMARKS
29 PALMS       MOSUNNY  105  41  11 N6        29.97F HX 100
BARSTOW/DAGGET SUNNY    107  39  10 VRB6      29.89F HX 101
BISHOP         LGT RAIN  71  61  70 SE8       30.27F
CHINA LAKE     PTSUNNY  106  46  13 S7        29.93F HX 102
EDWARDS AFB    PTSUNNY  102  40  12 SW13      29.94F HX  97
MOJAVE         FAIR     100  45  15 W21       30.00F HX  96
NEEDLES        SUNNY    111  52  14 MISG      29.80F HX 108
VICTORVILLE    MOSUNNY  100  41  13 W7        30.00F HX  96

$$

CAZ039-040-302300-
VENTURA AND SANTA BARBARA COUNTY COAST


CITY           SKY/WX    TMP DP  RH WIND       PRES   REMARKS
CAMARILLO      MOSUNNY   80  61  52 SW8       29.93F
NWS OXNARD       N/A     76  62  61 SW6       29.93F
OXNARD AIRPORT PTSUNNY   72  61  68 W14       29.93F
*POINT MUGU    PTSUNNY   78  63  59 W10       29.94F
SBA APT/GOLETA MOSUNNY   81  57  43 CALM      29.92F
*SANTA BARBARA   N/A     89  58  34 SW6       29.99F
*VENTURA         N/A     77  62  59 SW3       29.96S

$$

CAZ044-045-302300-
VENTURA COUNTY VALLEYS


CITY           SKY/WX    TMP DP  RH WIND       PRES   REMARKS
*SIMI VALLEY     N/A     90  64  41 SW5       29.86F HX  91
*OJAI            N/A     97  61  30 NW3       29.83F HX  97
*FILLMORE        N/A     87  64  44 CALM      29.81F

$$

CAZ053-302300-
VENTURA COUNTY MOUNTAINS


CITY           SKY/WX    TMP DP  RH WIND       PRES   REMARKS
*LOCKWOOD VLY    N/A     86  43  22 MISG        N/A
*ROSE VALLEY     N/A    N/A N/A N/A MISG        N/A

$$

CAZ034-035-036-302300-
CENTRAL COAST AND SANTA YNEZ VALLEY


CITY           SKY/WX    TMP DP  RH WIND       PRES   REMARKS
SAN LUIS OBISP CLOUDY    71  59  65 NW15      29.98S
SANTA MARIA    CLOUDY    71  59  65 NW8       30.01S

CITY           SKY/WX    TMP DP  RH WIND       PRES   REMARKS
*CAL POLY SLO    N/A     77  63  61 W6          N/A
*LOMPOC          N/A     72  59  64 MISG      30.00F
*PISMO BEACH     N/A     68  62  81 E3        29.99F

$$

CAZ037-038-051-302300-
SAN LUIS OBISPO COUNTY INTERIOR AND CUYAMA VALLEY


CITY           SKY/WX    TMP DP  RH WIND       PRES   REMARKS
*CUYAMA          N/A     95  46  18 NE3       29.84F HX  91
PASO ROBLES    PTSUNNY  103  50  17 SW13      29.93F HX 100

$$

CAZ032-033-061-302300-
SOUTHERN DESERTS


CITY           SKY/WX    TMP DP  RH WIND       PRES   REMARKS
BLYTHE           N/A    N/A N/A N/A MISG      29.76F
IMPERIAL       MOSUNNY  112  50  13 MISG      29.73F HX 109
PALM SPRINGS   SUNNY    113  45  10 NW14G21   29.80F HX 108
THERMAL        SUNNY    114  46  10 S8        29.72F HX 109

$$

ELSEWHERE ACROSS THE WESTERN UNITED STATES AND MEXICO


CITY           SKY/WX    TMP DP  RH WIND       PRES   REMARKS
DENVER, CO     CLOUDY    61  57  87 CALM      30.34S
GRAND CANYON,  SUNNY     85  44  23 W10       30.27F
HONOLULU, HI   MOSUNNY   88  63  42 NE15      30.01F
KAHULUI, MAUI  MOSUNNY   88  63  42 NE21G28   30.00F
LAKE TAHOE, CA CLOUDY    66  49  54 SE9       30.37R
LAS VEGAS, NV  MOSUNNY  105  46  13 NW10G18   29.89F HX 101
MAMMOTH LAKES, CLOUDY    63  54  72 SE5       30.45F
MEXICO CITY, M PTSUNNY   77  50  38 E14       30.27F
PHOENIX, AZ    PTSUNNY  110  51  14 W14       29.81F HX 107
PORTLAND, OR   MOSUNNY   85  58  39 NW8       30.05F
RENO, NV       CLOUDY    85  43  22 W9        30.20R
SALT LAKE CITY PTSUNNY   79  57  46 CALM      30.18F
SAN DIEGO, CA  MOSUNNY   79  63  57 NW9       29.95F
SAN FRANCISCO, MOSUNNY   71  58  63 W22G29    29.96F
SAN JOSE, CA   MOSUNNY   80  60  50 NW10      29.94F
SEATTLE, WA    MOSUNNY   82  49  31 N13       30.14F
TIJUANA, MEX   MOSUNNY   81  59  47 W13       29.97F

$$

STATION/POSITION TIME  TEMP    WIND        PRES    VSBY  WAVE
                       AIR SEA DIR/SP/G                  HT/PER
                 (UTC) (F)     (DEG/KT/KT) (MB)    (MI)  (FT/S)
POINT ARGUELLO B NOT AVBL
WEST SANTA BARBA 2200   62 62  310/ 23/ 27 1013.6F         4/ 5
POINT CONCEPTION NOT AVBL
EAST SANTA BARBA 2200   64 65  240/ 10/ 12 1013.7
SANTA MONICA BAY 2200   68 69  280/  6/  6 1013.7F         3/ 6


USA.gov is the U.S. government's official web portal to all federal, state and local government web resources and services.